[[{"header":{"parameterUnit":"m.s-1","parameterCategory":2,"la1":30.2992,"la2":30.254,"lo1":-89.0895,"lo2":-89.0443,"dy":0.0025,"dx":0.0025,"nx":19,"ny":19,"refTime":"2026-03-10T03:00:00:Z","depth":"0","parameterNumber":2,"parameterNumberName":"U-component_of_CURRENTS"},"data":[0,0,0,-0.192,-0.1918,-0.1849,-0.1848,-0.1792,-0.1792,0,0,0,0,0,0,0,0,0,0,0,-0.1932,-0.1932,-0.192,-0.1918,-0.1849,-0.1848,-0.1792,-0.1792,0,0,0,0,0,0,0,0,0,0,0,-0.1933,-0.1932,-0.1931,-0.1918,-0.1849,-0.1848,-0.1792,-0.1835,0,0,0,0,0,0,0,0,0,0,-0.1898,-0.1902,-0.1932,-0.1931,-0.1918,-0.1849,-0.1848,-0.1837,-0.1832,-0.1835,0,-0.1816,0,-0.1811,-0.1789,-0.1789,0,0,0,-0.1912,-0.1906,-0.1895,-0.1931,-0.1917,-0.1849,-0.1878,-0.1834,-0.1829,-0.1829,-0.1815,-0.1813,-0.181,-0.1789,-0.1789,-0.1769,-0.1769,0,0,-0.1916,-0.1914,-0.1898,-0.1892,-0.189,-0.1881,-0.1876,-0.1831,-0.1818,-0.1815,-0.1812,-0.1809,-0.1789,-0.1788,-0.1769,-0.1769,0,0,0,-0.1931,-0.1917,-0.1906,-0.1894,-0.1883,-0.1879,-0.1874,-0.182,-0.1818,-0.1811,-0.1808,-0.1789,-0.1788,-0.1769,-0.1769,-0.179,0,0,0,-0.1933,-0.1927,-0.1908,-0.1905,-0.1884,-0.1845,-0.1864,-0.182,-0.1815,-0.1809,-0.1789,-0.1788,-0.1769,-0.1769,-0.1789,-0.1794,0,0,0,-0.1937,-0.1927,-0.1918,-0.1905,-0.188,-0.1846,-0.184,-0.1819,-0.1814,-0.1789,-0.1788,-0.1769,-0.1769,-0.1789,-0.1793,-0.1737,0,0,0,-0.1941,-0.1889,-0.1917,-0.187,-0.1881,-0.1851,-0.1841,-0.1811,-0.1789,-0.1788,-0.1769,-0.1769,-0.1789,-0.1792,-0.1738,-0.1534,-0.1516,0,0,-0.1875,-0.1881,-0.1858,-0.1882,-0.1856,-0.186,-0.184,-0.1807,-0.1795,-0.1785,-0.1784,-0.179,-0.1793,-0.1737,-0.1543,-0.1524,0,0,0,-0.1838,-0.1827,-0.1822,-0.1819,-0.1815,-0.183,-0.181,-0.1808,-0.1795,-0.1784,-0.1787,-0.1788,-0.1752,-0.163,-0.1616,-0.1502,-0.177,-0.177,-0.177,-0.1743,-0.1771,-0.1752,-0.1788,-0.1787,-0.1806,-0.1809,-0.1808,-0.1798,-0.18,-0.1803,-0.1774,-0.1646,-0.1633,-0.152,-0.1803,-0.1803,-0.1803,-0.1803,-0.1681,-0.1678,-0.1736,-0.1732,-0.1778,-0.1781,-0.1813,-0.1818,-0.1805,-0.1818,-0.1781,-0.1657,-0.1617,-0.1503,-0.1805,-0.1804,-0.1804,-0.1804,-0.1804,-0.164,-0.1641,-0.1664,-0.1694,-0.1733,-0.1777,-0.1787,-0.1829,-0.1807,-0.18,-0.1611,-0.1608,-0.1504,-0.1761,-0.1761,-0.176,-0.176,-0.176,-0.176,-0.1579,-0.1604,-0.1612,-0.166,-0.1686,-0.1736,-0.1776,-0.1744,-0.1646,-0.1605,-0.1602,-0.1462,-0.176,-0.1758,-0.1757,-0.1757,-0.1758,-0.1758,-0.1758,-0.1496,-0.1525,-0.154,-0.1564,-0.1631,-0.1589,-0.1662,-0.149,-0.1451,-0.1335,-0.1208,-0.1477,-0.1436,-0.1445,-0.1434,-0.135,-0.135,-0.135,-0.135,-0.1429,-0.1451,-0.1468,-0.1502,-0.1537,-0.1525,-0.1291,-0.1167,-0.102,-0.0922,-0.0982,-0.0944,-0.0966,-0.0899,-0.092,-0.0899,-0.0681,-0.0681,-0.068,-0.1358,-0.1395,-0.1381,-0.1447,-0.1489,-0.1383,-0.106,-0.0758,-0.0604,-0.0652,-0.0868,-0.0896,-0.085,-0.0893,-0.0799,-0.0838,-0.0808,0,0]},{"header":{"parameterUnit":"m.s-1","parameterCategory":2,"la1":30.2992,"la2":30.254,"lo1":-89.0895,"lo2":-89.0443,"dy":0.0025,"dx":0.0025,"nx":19,"ny":19,"refTime":"2026-03-10T03:00:00:Z","depth":"0","parameterNumber":3,"parameterNumberName":"V-component_of_CURRENTS"},"data":[0,0,0,-0.0267,-0.0267,-0.023,-0.023,-0.016,-0.0159,0,0,0,0,0,0,0,0,0,0,0,-0.0281,-0.0281,-0.0267,-0.0267,-0.023,-0.023,-0.016,-0.0159,0,0,0,0,0,0,0,0,0,0,0,-0.0281,-0.0281,-0.0281,-0.0267,-0.023,-0.023,-0.016,-0.0192,0,0,0,0,0,0,0,0,0,0,-0.0229,-0.0253,-0.0281,-0.0281,-0.0266,-0.0231,-0.023,-0.0193,-0.019,-0.0172,0,-0.0174,0,-0.0167,-0.0155,-0.0155,0,0,0,-0.0258,-0.0256,-0.0243,-0.0281,-0.0266,-0.0231,-0.0244,-0.0191,-0.0187,-0.0167,-0.0173,-0.017,-0.0166,-0.0155,-0.0154,-0.0094,-0.0094,0,0,-0.0261,-0.0274,-0.0246,-0.0241,-0.0265,-0.0246,-0.0243,-0.0189,-0.019,-0.0172,-0.0168,-0.0165,-0.0154,-0.0154,-0.0094,-0.0094,0,0,0,-0.0272,-0.0276,-0.0264,-0.0243,-0.024,-0.0245,-0.0242,-0.0192,-0.0188,-0.0168,-0.0164,-0.0154,-0.0153,-0.0094,-0.0094,-0.0131,0,0,0,-0.0273,-0.0283,-0.0266,-0.0273,-0.0241,-0.022,-0.0247,-0.0191,-0.0185,-0.0164,-0.0154,-0.0152,-0.0094,-0.0094,-0.013,-0.0132,0,0,0,-0.0281,-0.0284,-0.0282,-0.0274,-0.0262,-0.0221,-0.0213,-0.019,-0.0183,-0.0155,-0.0152,-0.0094,-0.0094,-0.0129,-0.0131,-0.002,0,0,0,-0.0293,-0.0307,-0.0282,-0.0297,-0.0262,-0.0249,-0.0213,-0.0198,-0.0179,-0.0153,-0.0094,-0.0094,-0.0129,-0.0131,-0.0021,0.0047,0.0059,0,0,-0.032,-0.0311,-0.032,-0.0297,-0.0303,-0.0253,-0.0242,-0.0201,-0.0163,-0.0109,-0.0108,-0.013,-0.0131,-0.002,0.0069,0.0081,0,0,0,-0.0334,-0.0344,-0.034,-0.0338,-0.0313,-0.0277,-0.0236,-0.0198,-0.0144,-0.015,-0.0112,-0.011,-0.0039,-0.0001,0.0008,0.0071,-0.0092,-0.0092,-0.0092,-0.0385,-0.0374,-0.0391,-0.0373,-0.0354,-0.0293,-0.0246,-0.0181,-0.0162,-0.0135,-0.0128,-0.0053,-0.0017,-0.0008,0.0054,-0.012,-0.012,-0.012,-0.012,-0.0439,-0.0453,-0.0429,-0.0442,-0.039,-0.0368,-0.0258,-0.0218,-0.0102,-0.0126,-0.0054,-0.0029,0.0001,0.0063,-0.0122,-0.0122,-0.0122,-0.0122,-0.0122,-0.0482,-0.0487,-0.0491,-0.0498,-0.0469,-0.0407,-0.0294,-0.0225,-0.0121,-0.0069,0.0059,0.0061,0.0114,-0.001,-0.001,-0.0009,-0.0009,-0.0009,-0.0008,-0.0525,-0.0527,-0.0553,-0.055,-0.0539,-0.047,-0.0307,-0.0182,-0.0011,0.0054,0.0056,0.0152,-0.0017,-0.0023,-0.0001,-0.0003,-0.0004,-0.0004,-0.0005,-0.058,-0.0578,-0.0617,-0.0618,-0.0553,-0.0383,-0.0276,0.0017,0.0147,0.0252,0.0307,0.0159,0.0205,0.0197,0.0198,0.0277,0.0277,0.0277,0.0277,-0.0612,-0.0617,-0.064,-0.0616,-0.0521,-0.0331,0.0023,0.0247,0.0412,0.047,0.0456,0.0415,0.04,0.0454,0.0441,0.0446,0.0586,0.0586,0.0587,-0.0643,-0.0651,-0.0645,-0.0606,-0.0486,-0.0188,0.0219,0.0564,0.0653,0.0602,0.0533,0.052,0.0455,0.0428,0.0505,0.0481,0.0486,0,0]}],[{"header":{"parameterUnit":"m.s-1","parameterCategory":2,"la1":30.2992,"la2":30.254,"lo1":-89.0895,"lo2":-89.0443,"dy":0.0025,"dx":0.0025,"nx":19,"ny":19,"refTime":"2026-03-10T03:00:00:Z","depth":"2","parameterNumber":2,"parameterNumberName":"U-component_of_CURRENTS"},"data":[0,0,0,-0.1527,-0.1528,-0.1532,-0.1532,-0.1519,-0.1519,0,0,0,0,0,0,0,0,0,0,0,-0.152,-0.152,-0.1527,-0.1528,-0.1532,-0.1532,-0.1519,-0.1519,0,0,0,0,0,0,0,0,0,0,0,-0.152,-0.152,-0.1519,-0.1528,-0.1532,-0.1532,-0.1519,-0.152,0,0,0,0,0,0,0,0,0,0,-0.1518,-0.1519,-0.152,-0.1519,-0.1528,-0.1532,-0.1532,-0.152,-0.152,-0.1512,0,-0.151,0,-0.1517,-0.1518,-0.1518,0,0,0,-0.1525,-0.1519,-0.1517,-0.1519,-0.1528,-0.1532,-0.1529,-0.152,-0.1519,-0.1512,-0.151,-0.151,-0.1517,-0.1517,-0.1517,-0.151,-0.151,0,0,-0.1525,-0.1524,-0.1517,-0.1516,-0.1525,-0.1529,-0.1529,-0.152,-0.1519,-0.151,-0.151,-0.1517,-0.1517,-0.1517,-0.151,-0.151,0,0,0,-0.1526,-0.1524,-0.1522,-0.1517,-0.1521,-0.1529,-0.153,-0.152,-0.1518,-0.151,-0.1517,-0.1517,-0.1517,-0.151,-0.151,-0.1523,0,0,0,-0.1526,-0.1525,-0.1522,-0.1522,-0.1521,-0.1525,-0.153,-0.1518,-0.1518,-0.1517,-0.1517,-0.1517,-0.151,-0.151,-0.1523,-0.1521,0,0,0,-0.152,-0.1525,-0.1523,-0.1522,-0.1526,-0.1525,-0.1523,-0.1519,-0.1522,-0.1518,-0.1517,-0.151,-0.151,-0.1523,-0.152,-0.1483,0,0,0,-0.1522,-0.1505,-0.1523,-0.1514,-0.1525,-0.1527,-0.1523,-0.1523,-0.1519,-0.1517,-0.151,-0.151,-0.1523,-0.152,-0.1483,-0.1324,-0.1309,0,0,-0.1498,-0.1502,-0.1498,-0.1514,-0.1515,-0.1526,-0.1531,-0.1524,-0.1518,-0.1511,-0.1511,-0.1523,-0.152,-0.1483,-0.1329,-0.1314,0,0,0,-0.149,-0.1486,-0.149,-0.1499,-0.1509,-0.1525,-0.1527,-0.1527,-0.1524,-0.1517,-0.1521,-0.1518,-0.1494,-0.1399,-0.1388,-0.151,-0.151,-0.151,-0.151,-0.144,-0.1461,-0.1462,-0.1489,-0.1499,-0.1522,-0.1528,-0.1528,-0.1527,-0.1528,-0.1529,-0.1508,-0.1408,-0.1397,-0.1531,-0.1531,-0.1532,-0.1532,-0.1532,-0.1409,-0.1409,-0.1452,-0.1461,-0.1493,-0.1505,-0.1529,-0.1534,-0.1524,-0.1536,-0.1512,-0.1418,-0.1385,-0.1533,-0.1532,-0.1532,-0.1532,-0.1532,-0.1532,-0.1377,-0.1379,-0.1401,-0.1429,-0.1458,-0.1496,-0.149,-0.1523,-0.1522,-0.1516,-0.1379,-0.1377,-0.1498,-0.1495,-0.1495,-0.1494,-0.1494,-0.1494,-0.1494,-0.1326,-0.135,-0.1352,-0.1395,-0.1405,-0.1431,-0.1467,-0.1448,-0.1393,-0.1368,-0.1366,-0.1495,-0.1496,-0.1494,-0.1492,-0.1492,-0.1492,-0.1493,-0.1493,-0.126,-0.1282,-0.1278,-0.1286,-0.1305,-0.1256,-0.1333,-0.1244,-0.123,-0.1161,-0.1266,-0.1272,-0.1242,-0.1249,-0.1241,-0.1173,-0.1173,-0.1173,-0.1173,-0.1202,-0.122,-0.1186,-0.117,-0.1159,-0.1161,-0.1008,-0.0946,-0.0966,-0.0942,-0.0953,-0.0933,-0.095,-0.0904,-0.0919,-0.0905,-0.0749,-0.0749,-0.0748,-0.114,-0.1149,-0.1088,-0.1093,-0.1075,-0.1007,-0.0808,-0.0633,-0.0597,-0.0737,-0.0934,-0.1134,-0.1132,-0.1149,-0.1102,-0.1117,-0.1103,0,0]},{"header":{"parameterUnit":"m.s-1","parameterCategory":2,"la1":30.2992,"la2":30.254,"lo1":-89.0895,"lo2":-89.0443,"dy":0.0025,"dx":0.0025,"nx":19,"ny":19,"refTime":"2026-03-10T03:00:00:Z","depth":"2","parameterNumber":3,"parameterNumberName":"V-component_of_CURRENTS"},"data":[0,0,0,-0.0415,-0.0414,-0.0361,-0.036,-0.0296,-0.0296,0,0,0,0,0,0,0,0,0,0,0,-0.0433,-0.0433,-0.0415,-0.0414,-0.0361,-0.036,-0.0296,-0.0296,0,0,0,0,0,0,0,0,0,0,0,-0.0433,-0.0433,-0.0432,-0.0413,-0.0361,-0.036,-0.0296,-0.0334,0,0,0,0,0,0,0,0,0,0,-0.0385,-0.0407,-0.0433,-0.0432,-0.0413,-0.0361,-0.036,-0.0336,-0.0332,-0.0323,0,-0.0316,0,-0.0307,-0.0292,-0.0292,0,0,0,-0.0409,-0.0411,-0.0393,-0.0432,-0.0413,-0.0361,-0.0383,-0.0334,-0.0329,-0.0317,-0.0315,-0.0313,-0.0305,-0.0291,-0.0291,-0.0251,-0.0251,0,0,-0.0412,-0.0425,-0.0396,-0.039,-0.0401,-0.0385,-0.0382,-0.0331,-0.0329,-0.0315,-0.0311,-0.0304,-0.0291,-0.0291,-0.0251,-0.0251,0,0,0,-0.0423,-0.0428,-0.0411,-0.0393,-0.0384,-0.0383,-0.038,-0.0331,-0.0325,-0.0311,-0.0304,-0.0291,-0.029,-0.0251,-0.0251,-0.0294,0,0,0,-0.0425,-0.0434,-0.0412,-0.042,-0.0385,-0.0358,-0.0382,-0.0328,-0.0322,-0.0304,-0.0291,-0.0289,-0.0251,-0.0251,-0.0293,-0.0312,0,0,0,-0.0435,-0.0436,-0.0429,-0.0421,-0.04,-0.0358,-0.0349,-0.0327,-0.0318,-0.0292,-0.0289,-0.0251,-0.0251,-0.0292,-0.031,-0.0274,0,0,0,-0.045,-0.0449,-0.043,-0.0431,-0.04,-0.0381,-0.0349,-0.033,-0.0311,-0.029,-0.0251,-0.0251,-0.0292,-0.0308,-0.0273,-0.0237,-0.0236,0,0,-0.0459,-0.0451,-0.0453,-0.0434,-0.0431,-0.0387,-0.0378,-0.0339,-0.0306,-0.0268,-0.0266,-0.0293,-0.0309,-0.0274,-0.0235,-0.0234,0,0,0,-0.0463,-0.0467,-0.0462,-0.0456,-0.0431,-0.0411,-0.0369,-0.0343,-0.0306,-0.0294,-0.028,-0.0289,-0.0265,-0.0242,-0.0241,-0.0251,-0.0251,-0.0251,-0.0251,-0.0494,-0.0487,-0.0497,-0.0485,-0.0468,-0.0425,-0.04,-0.0355,-0.0326,-0.0313,-0.0315,-0.0305,-0.0283,-0.0281,-0.0303,-0.0303,-0.0303,-0.0303,-0.0304,-0.053,-0.0544,-0.0532,-0.054,-0.0511,-0.0496,-0.0431,-0.0401,-0.0344,-0.0334,-0.0308,-0.0278,-0.0282,-0.0307,-0.0306,-0.0306,-0.0305,-0.0305,-0.0305,-0.0565,-0.0572,-0.0576,-0.0591,-0.0583,-0.0542,-0.051,-0.0456,-0.0382,-0.0365,-0.0292,-0.029,-0.0318,-0.0337,-0.0337,-0.0337,-0.0337,-0.0337,-0.0337,-0.0602,-0.0606,-0.0636,-0.0642,-0.0651,-0.0631,-0.0554,-0.0499,-0.0389,-0.0327,-0.0325,-0.0315,-0.0314,-0.0318,-0.0336,-0.0336,-0.0336,-0.0336,-0.0336,-0.0646,-0.065,-0.0698,-0.0717,-0.0727,-0.0713,-0.0624,-0.0467,-0.0383,-0.031,-0.0283,-0.0285,-0.0257,-0.0257,-0.0257,-0.0259,-0.0259,-0.0259,-0.0259,-0.0678,-0.0684,-0.0752,-0.0788,-0.0794,-0.0751,-0.0642,-0.0473,-0.0315,-0.0264,-0.0264,-0.0269,-0.0271,-0.0243,-0.0244,-0.0244,-0.0242,-0.0242,-0.0242,-0.0709,-0.073,-0.0782,-0.0818,-0.0829,-0.0781,-0.068,-0.0446,-0.0256,-0.0245,-0.0298,-0.025,-0.0257,-0.0261,-0.0217,-0.0219,-0.0219,0,0]}],[{"header":{"parameterUnit":"m.s-1","parameterCategory":2,"la1":30.2992,"la2":30.254,"lo1":-89.0895,"lo2":-89.0443,"dy":0.0025,"dx":0.0025,"nx":19,"ny":19,"refTime":"2026-03-10T03:00:00:Z","depth":"4","parameterNumber":2,"parameterNumberName":"U-component_of_CURRENTS"},"data":[0,0,0,-0.1038,-0.104,-0.114,-0.114,-0.1186,-0.1186,0,0,0,0,0,0,0,0,0,0,0,-0.1009,-0.101,-0.1037,-0.104,-0.114,-0.114,-0.1186,-0.1186,0,0,0,0,0,0,0,0,0,0,0,-0.1009,-0.101,-0.1011,-0.104,-0.114,-0.114,-0.1186,-0.113,0,0,0,0,0,0,0,0,0,0,-0.1043,-0.1031,-0.101,-0.1011,-0.1041,-0.114,-0.114,-0.1128,-0.1133,-0.1118,0,-0.1146,0,-0.1164,-0.1187,-0.1187,0,0,0,-0.1037,-0.1027,-0.1052,-0.1011,-0.1042,-0.114,-0.1094,-0.1132,-0.1137,-0.1124,-0.1147,-0.1149,-0.1165,-0.1187,-0.1187,-0.121,-0.121,0,0,-0.1031,-0.1025,-0.1049,-0.1056,-0.1083,-0.1091,-0.1097,-0.1136,-0.1147,-0.1147,-0.1151,-0.1166,-0.1188,-0.1188,-0.121,-0.121,0,0,0,-0.1018,-0.1021,-0.1047,-0.1054,-0.1078,-0.1094,-0.1101,-0.1146,-0.1155,-0.1151,-0.1166,-0.1188,-0.1188,-0.121,-0.121,-0.122,0,0,0,-0.1014,-0.1013,-0.1044,-0.1041,-0.1078,-0.1125,-0.111,-0.1152,-0.1157,-0.1166,-0.1188,-0.1188,-0.121,-0.121,-0.1219,-0.1208,0,0,0,-0.1002,-0.1011,-0.1028,-0.104,-0.1085,-0.1125,-0.1137,-0.1154,-0.1166,-0.1187,-0.1188,-0.121,-0.121,-0.1219,-0.1208,-0.1153,0,0,0,-0.0984,-0.1009,-0.1028,-0.1061,-0.1084,-0.113,-0.1137,-0.1175,-0.1196,-0.1188,-0.121,-0.121,-0.1219,-0.1208,-0.1154,-0.1004,0,0,0,-0.0997,-0.101,-0.1027,-0.1046,-0.1087,-0.1115,-0.1152,-0.1184,-0.119,-0.119,-0.1192,-0.1219,-0.1208,-0.1153,-0.1018,0,0,0,0,-0.1019,-0.1032,-0.1048,-0.1081,-0.1117,-0.1147,-0.1184,-0.1192,-0.1212,-0.1205,-0.1221,-0.1213,-0.1178,-0.1094,-0.1211,-0.1211,-0.1211,-0.1211,-0.1211,-0.1013,-0.1034,-0.1061,-0.1094,-0.1126,-0.1171,-0.1187,-0.1203,-0.1218,-0.1227,-0.1223,-0.119,-0.1104,-0.1233,-0.1233,-0.1233,-0.1233,-0.1233,-0.1233,-0.1013,-0.1019,-0.106,-0.1095,-0.1132,-0.1167,-0.1194,-0.1209,-0.1199,-0.1228,-0.1193,-0.1114,-0.1234,-0.1234,-0.1234,-0.1234,-0.1234,-0.1234,-0.1234,-0.0987,-0.0991,-0.1029,-0.1073,-0.1115,-0.1163,-0.1143,-0.1185,-0.1191,-0.1178,-0.1051,-0.1173,-0.1166,-0.1155,-0.1155,-0.1154,-0.1154,-0.1154,-0.1154,-0.0935,-0.0971,-0.0988,-0.1046,-0.1064,-0.1087,-0.1115,-0.1082,-0.1105,-0.1026,-0.1167,-0.1162,-0.1165,-0.116,-0.1149,-0.115,-0.1151,-0.1151,-0.1151,-0.0876,-0.0905,-0.0913,-0.0932,-0.0954,-0.0951,-0.1006,-0.0922,-0.0863,-0.0801,-0.0925,-0.0937,-0.0904,-0.0912,-0.0898,-0.0809,-0.0807,-0.0805,0,-0.0823,-0.0843,-0.0824,-0.081,-0.0781,-0.0844,-0.0727,-0.0714,-0.073,-0.0715,-0.0857,-0.1001,-0.1008,-0.0977,-0.0981,-0.0966,0,0,0,-0.077,-0.0775,-0.0726,-0.0728,-0.0686,-0.0647,-0.0684,-0.0631,-0.0759,-0.065,-0.0754,-0.0767,-0.0991,-0.1137,-0.1115,-0.1118,-0.1108,0,0]},{"header":{"parameterUnit":"m.s-1","parameterCategory":2,"la1":30.2992,"la2":30.254,"lo1":-89.0895,"lo2":-89.0443,"dy":0.0025,"dx":0.0025,"nx":19,"ny":19,"refTime":"2026-03-10T03:00:00:Z","depth":"4","parameterNumber":3,"parameterNumberName":"V-component_of_CURRENTS"},"data":[0,0,0,-0.0335,-0.0334,-0.0311,-0.0311,-0.0269,-0.0269,0,0,0,0,0,0,0,0,0,0,0,-0.0344,-0.0344,-0.0335,-0.0334,-0.0311,-0.0311,-0.0269,-0.0269,0,0,0,0,0,0,0,0,0,0,0,-0.0344,-0.0344,-0.0345,-0.0334,-0.0311,-0.0311,-0.0269,-0.0289,0,0,0,0,0,0,0,0,0,0,-0.0312,-0.033,-0.0344,-0.0345,-0.0334,-0.0311,-0.0311,-0.029,-0.0288,-0.0278,0,-0.028,0,-0.0275,-0.0266,-0.0266,0,0,0,-0.0329,-0.0332,-0.0321,-0.0345,-0.0334,-0.0311,-0.032,-0.0289,-0.0286,-0.0275,-0.0279,-0.0277,-0.0274,-0.0266,-0.0266,-0.0248,-0.0248,0,0,-0.033,-0.0342,-0.0323,-0.032,-0.0334,-0.0321,-0.032,-0.0287,-0.0289,-0.0279,-0.0276,-0.0273,-0.0266,-0.0266,-0.0248,-0.0248,0,0,0,-0.0338,-0.0343,-0.0334,-0.0322,-0.0319,-0.032,-0.0319,-0.0291,-0.0287,-0.0276,-0.0273,-0.0266,-0.0265,-0.0248,-0.0248,-0.0289,0,0,0,-0.0338,-0.0348,-0.0334,-0.0341,-0.032,-0.0308,-0.0323,-0.0289,-0.0285,-0.0273,-0.0266,-0.0265,-0.0248,-0.0248,-0.0288,-0.0312,0,0,0,-0.0344,-0.0348,-0.0347,-0.0342,-0.0334,-0.0308,-0.0302,-0.0288,-0.0283,-0.0266,-0.0265,-0.0248,-0.0248,-0.0287,-0.0309,-0.032,0,0,0,-0.0355,-0.0357,-0.0347,-0.0352,-0.0334,-0.0325,-0.0302,-0.0294,-0.0282,-0.0265,-0.0248,-0.0248,-0.0287,-0.0308,-0.0318,-0.0284,0,0,0,-0.0362,-0.0358,-0.0361,-0.0352,-0.0355,-0.0328,-0.033,-0.0305,-0.0281,-0.0256,-0.0256,-0.0289,-0.0309,-0.0319,-0.0296,0,0,0,0,-0.0366,-0.0371,-0.037,-0.0372,-0.0359,-0.0356,-0.0328,-0.0315,-0.0297,-0.0276,-0.0281,-0.0293,-0.0298,-0.0273,-0.0249,-0.0249,-0.0249,-0.0249,-0.0249,-0.039,-0.0387,-0.04,-0.0397,-0.0392,-0.0373,-0.0367,-0.0343,-0.0316,-0.0315,-0.0321,-0.0351,-0.0326,-0.0311,-0.0311,-0.0311,-0.0312,-0.0312,-0.0312,-0.0414,-0.0426,-0.0429,-0.0442,-0.0436,-0.0437,-0.0407,-0.039,-0.0376,-0.035,-0.0353,-0.0312,-0.0316,-0.0315,-0.0314,-0.0314,-0.0314,-0.0313,-0.0313,-0.0436,-0.0441,-0.0456,-0.0483,-0.0497,-0.0482,-0.0485,-0.0457,-0.0419,-0.0423,-0.0381,-0.0376,-0.0378,-0.042,-0.042,-0.042,-0.042,-0.042,-0.0421,-0.0452,-0.0465,-0.05,-0.0525,-0.0547,-0.0555,-0.0534,-0.0513,-0.0475,-0.0427,-0.0434,-0.0387,-0.0383,-0.0384,-0.0423,-0.0423,-0.0422,-0.0422,-0.0422,-0.0472,-0.0487,-0.0538,-0.0569,-0.0612,-0.0607,-0.0592,-0.052,-0.0501,-0.0458,-0.042,-0.0419,-0.04,-0.0396,-0.0396,-0.0441,-0.044,-0.044,0,-0.0489,-0.0498,-0.0573,-0.0624,-0.0649,-0.0636,-0.0584,-0.0544,-0.0485,-0.0477,-0.0514,-0.0476,-0.0473,-0.0455,-0.0451,-0.0454,0,0,0,-0.0506,-0.0529,-0.0583,-0.0637,-0.0666,-0.0598,-0.0565,-0.0533,-0.0491,-0.0443,-0.0433,-0.0435,-0.0444,-0.043,-0.0399,-0.0394,-0.0393,0,0]}]]